| time (UTC) | temp F | wind direction | speed MPH | gust MPH | rain 1hr in | rain 24hr in | rain mn in | humidity % | barometer mb |
| 20260506073039 | 77 | 202 | 3.0 | 8.0 | 0.00 | 0.00 | 0.00 | 86 | 1012.0 |
| 20260506072534 | 77 | 0 | 4.0 | 10.0 | 0.00 | 0.00 | 0.00 | 86 | 1012.0 |
| 20260506072034 | 77 | 159 | 4.0 | 10.0 | 0.00 | 0.00 | 0.00 | 86 | 1011.9 |
| 20260506071551 | 77 | 169 | 4.0 | 9.0 | 0.00 | 0.00 | 0.00 | 86 | 1012.1 |
| 20260506071034 | 77 | 0 | 4.0 | 12.0 | 0.00 | 0.00 | 0.00 | 86 | 1012.2 |
| 20260506070536 | 77 | 125 | 3.0 | 12.0 | 0.00 | 0.00 | 0.00 | 86 | 1012.3 |
| 20260506062033 | 77 | 169 | 7.0 | 17.0 | 0.00 | 0.00 | 0.00 | 85 | 1012.3 |
| 20260506061542 | 77 | 171 | 5.0 | 13.0 | 0.00 | 0.00 | 0.00 | 85 | 1012.4 |
| 20260506061034 | 77 | 170 | 5.0 | 14.0 | 0.00 | 0.00 | 0.00 | 85 | 1012.4 |
| 20260506060535 | 77 | 117 | 4.0 | 16.0 | 0.00 | 0.00 | 0.00 | 85 | 1012.3 |
| 20260506051034 | 77 | 155 | 5.0 | 13.0 | 0.00 | 0.00 | 0.00 | 86 | 1012.6 |
| 20260506050534 | 77 | 98 | 4.0 | 10.0 | 0.00 | 0.00 | 0.00 | 86 | 1012.6 |
| 20260506045034 | 77 | 76 | 2.0 | 12.0 | 0.00 | 0.00 | 0.00 | 86 | 1012.5 |
| 20260506044539 | 77 | 150 | 3.0 | 12.0 | 0.00 | 0.00 | 0.00 | 86 | 1012.5 |
| 20260506044035 | 77 | 122 | 4.0 | 10.0 | 0.00 | 0.00 | 0.00 | 86 | 1012.6 |
| 20260506043534 | 77 | 130 | 3.0 | 10.0 | 0.00 | 0.00 | 0.00 | 86 | 1012.6 |
| 20260506043044 | 77 | 0 | 3.0 | 10.0 | 0.00 | 0.00 | 0.00 | 86 | 1012.4 |
| 20260506042535 | 77 | 119 | 3.0 | 11.0 | 0.00 | 0.00 | 0.00 | 86 | 1012.5 |
| 20260506042035 | 78 | 134 | 3.0 | 12.0 | 0.00 | 0.00 | 0.00 | 86 | 1012.4 |
| 20260506041542 | 78 | 0 | 2.0 | 12.0 | 0.00 | 0.00 | 0.00 | 86 | 1012.4 |
| 20260506041036 | 78 | 150 | 3.0 | 10.0 | 0.00 | 0.00 | 0.00 | 85 | 1012.2 |
| 20260506040536 | 78 | 0 | 2.0 | 12.0 | 0.00 | 0.00 | 0.00 | 85 | 1012.1 |
| 20260506040041 | 78 | 138 | 4.0 | 12.0 | 0.00 | 0.00 | 0.00 | 85 | 1012.2 |
| 20260506035536 | 78 | 70 | 3.0 | 9.0 | 0.00 | 0.00 | 0.00 | 85 | 1012.2 |
| 20260506035037 | 78 | 84 | 2.0 | 12.0 | 0.00 | 0.00 | 0.00 | 85 | 1012.2 |
| 20260506034551 | 78 | 0 | 4.0 | 12.0 | 0.00 | 0.00 | 0.00 | 85 | 1012.2 |
| 20260506034036 | 78 | 104 | 4.0 | 11.0 | 0.00 | 0.00 | 0.00 | 85 | 1012.1 |
| 20260506033536 | 78 | 145 | 5.0 | 11.0 | 0.00 | 0.00 | 0.00 | 84 | 1012.0 |
| 20260506033049 | 79 | 153 | 3.0 | 11.0 | 0.00 | 0.00 | 0.00 | 84 | 1012.0 |
| 20260506032536 | 79 | 110 | 3.0 | 11.0 | 0.00 | 0.00 | 0.00 | 84 | 1012.0 |
| 20260506032036 | 79 | 172 | 2.0 | 9.0 | 0.00 | 0.00 | 0.00 | 84 | 1011.9 |
| 20260506031542 | 79 | 0 | 3.0 | 7.0 | 0.00 | 0.00 | 0.00 | 84 | 1011.9 |
| 20260506031038 | 79 | 113 | 3.0 | 7.0 | 0.00 | 0.00 | 0.00 | 84 | 1011.8 |
| 20260506030538 | 79 | 0 | 2.0 | 8.0 | 0.00 | 0.00 | 0.00 | 84 | 1011.7 |
| 20260506030042 | 79 | 83 | 2.0 | 8.0 | 0.00 | 0.00 | 0.00 | 84 | 1011.7 |
| 20260506025537 | 79 | 127 | 2.0 | 9.0 | 0.00 | 0.00 | 0.00 | 83 | 1011.6 |
| 20260506025036 | 79 | 153 | 2.0 | 9.0 | 0.00 | 0.00 | 0.00 | 83 | 1011.5 |
| 20260506024550 | 79 | 109 | 3.0 | 9.0 | 0.00 | 0.00 | 0.00 | 83 | 1011.3 |
| 20260506024036 | 79 | 136 | 2.0 | 9.0 | 0.00 | 0.00 | 0.00 | 83 | 1011.3 |
| 20260506023536 | 79 | 159 | 4.0 | 9.0 | 0.00 | 0.00 | 0.00 | 83 | 1011.3 |
| 20260506023047 | 80 | 0 | 4.0 | 9.0 | 0.00 | 0.00 | 0.00 | 83 | 1011.1 |
| 20260506022536 | 80 | 68 | 2.0 | 9.0 | 0.00 | 0.00 | 0.00 | 83 | 1010.9 |
| 20260506022036 | 80 | 93 | 4.0 | 10.0 | 0.00 | 0.00 | 0.00 | 82 | 1010.7 |
| 20260506021547 | 80 | 111 | 4.0 | 10.0 | 0.00 | 0.00 | 0.00 | 82 | 1010.6 |
| 20260506021036 | 80 | 84 | 4.0 | 10.0 | 0.00 | 0.00 | 0.00 | 82 | 1010.5 |
| 20260506020536 | 80 | 123 | 3.0 | 10.0 | 0.00 | 0.00 | 0.00 | 81 | 1010.5 |
| 20260506020050 | 81 | 96 | 3.0 | 12.0 | 0.00 | 0.00 | 0.00 | 81 | 1010.3 |
| 20260506015538 | 81 | 96 | 4.0 | 12.0 | 0.00 | 0.00 | 0.00 | 80 | 1010.3 |
| 20260506015037 | 81 | 77 | 4.0 | 11.0 | 0.00 | 0.00 | 0.00 | 80 | 1010.4 |
| 20260506014541 | 81 | 100 | 4.0 | 11.0 | 0.00 | 0.00 | 0.00 | 80 | 1010.3 |
| 20260506014036 | 81 | 84 | 3.0 | 11.0 | 0.00 | 0.00 | 0.00 | 80 | 1010.4 |
| 20260506013536 | 82 | 92 | 3.0 | 11.0 | 0.00 | 0.00 | 0.00 | 79 | 1010.4 |
| 20260506013048 | 82 | 69 | 4.0 | 11.0 | 0.00 | 0.00 | 0.00 | 79 | 1010.2 |
| 20260506012536 | 82 | 108 | 6.0 | 11.0 | 0.00 | 0.00 | 0.00 | 79 | 1010.1 |
| 20260506012035 | 82 | 86 | 5.0 | 11.0 | 0.00 | 0.00 | 0.00 | 78 | 1010.1 |
| 20260506011610 | 82 | 115 | 3.0 | 7.0 | 0.00 | 0.00 | 0.00 | 78 | 1010.1 |
| 20260506011036 | 83 | 0 | 1.0 | 6.0 | 0.00 | 0.00 | 0.00 | 78 | 1009.9 |
| 20260506010537 | 83 | 0 | 2.0 | 11.0 | 0.00 | 0.00 | 0.00 | 77 | 1009.8 |
| 20260506010047 | 83 | 155 | 5.0 | 12.0 | 0.00 | 0.00 | 0.00 | 76 | 1009.7 |
| 20260506005536 | 84 | 78 | 6.0 | 12.0 | 0.00 | 0.00 | 0.00 | 76 | 1009.7 |
| 20260506005037 | 84 | 80 | 4.0 | 11.0 | 0.00 | 0.00 | 0.00 | 75 | 1009.6 |
| 20260506004602 | 84 | 66 | 3.0 | 13.0 | 0.00 | 0.00 | 0.00 | 74 | 1009.5 |
| 20260506004036 | 85 | 123 | 4.0 | 13.0 | 0.00 | 0.00 | 0.00 | 73 | 1009.4 |
| 20260506003536 | 85 | 183 | 4.0 | 12.0 | 0.00 | 0.00 | 0.00 | 73 | 1009.5 |
| 20260506003042 | 85 | 80 | 3.0 | 8.0 | 0.00 | 0.00 | 0.00 | 73 | 1009.5 |
| 20260506002536 | 85 | 85 | 2.0 | 8.0 | 0.00 | 0.00 | 0.00 | 73 | 1009.5 |
| 20260506002036 | 86 | 66 | 3.0 | 9.0 | 0.00 | 0.00 | 0.00 | 72 | 1009.5 |
| 20260506001549 | 86 | 57 | 4.0 | 11.0 | 0.00 | 0.00 | 0.00 | 71 | 1009.5 |
| 20260506001036 | 86 | 130 | 3.0 | 13.0 | 0.00 | 0.00 | 0.00 | 71 | 1009.5 |
| 20260506000537 | 86 | 74 | 4.0 | 13.0 | 0.00 | 0.00 | 0.00 | 70 | 1009.4 |
| 20260506000115 | 87 | 144 | 4.0 | 9.0 | 0.00 | 0.00 | 0.00 | 69 | 1009.4 |
| 20260505235536 | 87 | 103 | 1.0 | 9.0 | 0.00 | 0.00 | 0.00 | 69 | 1009.3 |
| 20260505235038 | 87 | 104 | 2.0 | 9.0 | 0.00 | 0.00 | 0.00 | 68 | 1009.2 |
| 20260505234553 | 87 | 76 | 4.0 | 13.0 | 0.00 | 0.00 | 0.00 | 68 | 1009.1 |
| 20260505234038 | 87 | 106 | 3.0 | 13.0 | 0.00 | 0.00 | 0.00 | 68 | 1009.1 |
| 20260505233535 | 88 | 78 | 3.0 | 13.0 | 0.00 | 0.00 | 0.00 | 67 | 1009.1 |
| 20260505233042 | 88 | 123 | 3.0 | 10.0 | 0.00 | 0.00 | 0.00 | 67 | 1009.1 |
| 20260505232536 | 88 | 81 | 4.0 | 11.0 | 0.00 | 0.00 | 0.00 | 67 | 1009.1 |
| 20260505232038 | 88 | 61 | 6.0 | 11.0 | 0.00 | 0.00 | 0.00 | 66 | 1009.1 |
| 20260505231542 | 89 | 67 | 5.0 | 10.0 | 0.00 | 0.00 | 0.00 | 65 | 1009.1 |
| 20260505231035 | 89 | 86 | 2.0 | 9.0 | 0.00 | 0.00 | 0.00 | 66 | 1009.1 |
| 20260505230536 | 89 | 161 | 1.0 | 10.0 | 0.00 | 0.00 | 0.00 | 65 | 1009.2 |
| 20260505230059 | 90 | 0 | 2.0 | 10.0 | 0.00 | 0.00 | 0.00 | 64 | 1009.2 |
| 20260505225537 | 90 | 69 | 4.0 | 13.0 | 0.00 | 0.00 | 0.00 | 64 | 1009.2 |
| 20260505225039 | 90 | 138 | 5.0 | 13.0 | 0.00 | 0.00 | 0.00 | 63 | 1009.2 |
| 20260505224542 | 91 | 94 | 5.0 | 11.0 | 0.00 | 0.00 | 0.00 | 63 | 1009.1 |
| 20260505224037 | 91 | 101 | 2.0 | 9.0 | 0.00 | 0.00 | 0.00 | 63 | 1009.2 |
| 20260505223536 | 91 | 92 | 4.0 | 10.0 | 0.00 | 0.00 | 0.00 | 62 | 1009.2 |
| 20260505223046 | 91 | 90 | 2.0 | 10.0 | 0.00 | 0.00 | 0.00 | 63 | 1009.2 |
| 20260505222537 | 91 | 109 | 3.0 | 11.0 | 0.00 | 0.00 | 0.00 | 63 | 1009.3 |
| 20260505222038 | 91 | 0 | 1.0 | 11.0 | 0.00 | 0.00 | 0.00 | 63 | 1009.2 |
| 20260505221557 | 91 | 161 | 3.0 | 9.0 | 0.00 | 0.00 | 0.00 | 63 | 1009.1 |
| 20260505221036 | 91 | 74 | 3.0 | 10.0 | 0.00 | 0.00 | 0.00 | 62 | 1009.2 |
| 20260505220534 | 91 | 0 | 3.0 | 10.0 | 0.00 | 0.00 | 0.00 | 62 | 1009.3 |
| 20260505220049 | 91 | 89 | 4.0 | 10.0 | 0.00 | 0.00 | 0.00 | 63 | 1009.4 |
| 20260505215535 | 90 | 128 | 4.0 | 8.0 | 0.00 | 0.00 | 0.00 | 63 | 1009.5 |
| 20260505215035 | 90 | 0 | 0.0 | 9.0 | 0.00 | 0.00 | 0.00 | 64 | 1009.5 |
| 20260505214537 | 90 | 0 | 2.0 | 9.0 | 0.00 | 0.00 | 0.00 | 63 | 1009.6 |
| 20260505214035 | 91 | 63 | 4.0 | 9.0 | 0.00 | 0.00 | 0.00 | 61 | 1009.7 |
| 20260505213535 | 92 | 115 | 3.0 | 9.0 | 0.00 | 0.00 | 0.00 | 61 | 1009.8 |
| 20260505213045 | 92 | 134 | 2.0 | 13.0 | 0.00 | 0.00 | 0.00 | 61 | 1009.8 |
| 20260505212535 | 92 | 0 | 4.0 | 13.0 | 0.00 | 0.00 | 0.00 | 59 | 1009.9 |
| 20260505212035 | 92 | 172 | 6.0 | 11.0 | 0.00 | 0.00 | 0.00 | 59 | 1010.0 |
| 20260505211543 | 92 | 66 | 2.0 | 9.0 | 0.00 | 0.00 | 0.00 | 59 | 1010.1 |
| 20260505211035 | 92 | 141 | 3.0 | 9.0 | 0.00 | 0.00 | 0.00 | 60 | 1010.0 |
| 20260505210535 | 92 | 135 | 3.0 | 9.0 | 0.00 | 0.00 | 0.00 | 59 | 1010.0 |
| 20260505210050 | 92 | 178 | 4.0 | 11.0 | 0.00 | 0.00 | 0.00 | 59 | 1010.0 |
| 20260505205535 | 92 | 151 | 3.0 | 11.0 | 0.00 | 0.00 | 0.00 | 59 | 1010.2 |
| 20260505205036 | 92 | 0 | 2.0 | 10.0 | 0.00 | 0.00 | 0.00 | 61 | 1010.3 |
| 20260505204553 | 91 | 109 | 2.0 | 10.0 | 0.00 | 0.00 | 0.00 | 61 | 1010.5 |
| 20260505204034 | 91 | 95 | 5.0 | 10.0 | 0.00 | 0.00 | 0.00 | 60 | 1010.6 |
| 20260505203537 | 91 | 161 | 1.0 | 9.0 | 0.00 | 0.00 | 0.00 | 61 | 1010.7 |
| 20260505203052 | 91 | 110 | 3.0 | 9.0 | 0.00 | 0.00 | 0.00 | 62 | 1010.7 |
| 20260505202534 | 91 | 146 | 4.0 | 9.0 | 0.00 | 0.00 | 0.00 | 63 | 1010.7 |
| 20260505202035 | 90 | 75 | 3.0 | 7.0 | 0.00 | 0.00 | 0.00 | 62 | 1010.9 |
| 20260505201551 | 91 | 163 | 3.0 | 7.0 | 0.00 | 0.00 | 0.00 | 62 | 1011.0 |
| 20260505201036 | 91 | 0 | 1.0 | 8.0 | 0.00 | 0.00 | 0.00 | 62 | 1010.9 |
| 20260505200535 | 91 | 136 | 0.0 | 8.0 | 0.00 | 0.00 | 0.00 | 61 | 1010.9 |
| 20260505200045 | 90 | 116 | 2.0 | 8.0 | 0.00 | 0.00 | 0.00 | 63 | 1011.0 |
| 20260505195538 | 90 | 148 | 1.0 | 8.0 | 0.00 | 0.00 | 0.00 | 62 | 1011.0 |
| 20260505195034 | 89 | 153 | 3.0 | 9.0 | 0.00 | 0.00 | 0.00 | 63 | 1011.1 |
| 20260505194604 | 89 | 185 | 4.0 | 9.0 | 0.00 | 0.00 | 0.00 | 65 | 1011.2 |
| 20260505194034 | 89 | 192 | 3.0 | 10.0 | 0.00 | 0.00 | 0.00 | 64 | 1011.3 |
| 20260505193535 | 89 | 150 | 4.0 | 12.0 | 0.00 | 0.00 | 0.00 | 65 | 1011.3 |
| 20260505193049 | 89 | 0 | 2.0 | 12.0 | 0.00 | 0.00 | 0.00 | 64 | 1011.4 |
| 20260505192534 | 89 | 162 | 5.0 | 12.0 | 0.00 | 0.00 | 0.00 | 64 | 1011.5 |
| 20260505192034 | 89 | 145 | 0.0 | 9.0 | 0.00 | 0.00 | 0.00 | 65 | 1011.5 |
| 20260505191556 | 88 | 205 | 3.0 | 11.0 | 0.00 | 0.00 | 0.00 | 65 | 1011.6 |
| 20260505191034 | 88 | 144 | 6.0 | 11.0 | 0.00 | 0.00 | 0.00 | 68 | 1011.6 |
| 20260505190536 | 87 | 139 | 1.0 | 10.0 | 0.00 | 0.00 | 0.00 | 67 | 1011.6 |
| 20260505190055 | 87 | 160 | 6.0 | 10.0 | 0.00 | 0.00 | 0.00 | 67 | 1011.6 |
| 20260505185537 | 86 | 126 | 4.0 | 9.0 | 0.00 | 0.00 | 0.00 | 70 | 1011.7 |
| 20260505185034 | 85 | 169 | 3.0 | 10.0 | 0.00 | 0.00 | 0.00 | 70 | 1011.8 |
| 20260505184544 | 85 | 0 | 3.0 | 11.0 | 0.00 | 0.00 | 0.00 | 70 | 1011.7 |
| 20260505184034 | 85 | 234 | 4.0 | 11.0 | 0.00 | 0.00 | 0.00 | 70 | 1011.8 |
| 20260505183534 | 85 | 156 | 2.0 | 8.0 | 0.00 | 0.00 | 0.00 | 71 | 1011.9 |
| 20260505183042 | 84 | 134 | 2.0 | 11.0 | 0.00 | 0.00 | 0.00 | 71 | 1012.0 |
| 20260505182534 | 84 | 189 | 3.0 | 11.0 | 0.00 | 0.00 | 0.00 | 73 | 1012.0 |
| 20260505182036 | 83 | 140 | 3.0 | 7.0 | 0.00 | 0.00 | 0.00 | 73 | 1012.1 |
| 20260505181540 | 83 | 198 | 1.0 | 10.0 | 0.00 | 0.00 | 0.00 | 73 | 1012.1 |
| 20260505181036 | 83 | 195 | 4.0 | 10.0 | 0.00 | 0.00 | 0.00 | 72 | 1012.1 |
| 20260505180534 | 83 | 163 | 3.0 | 10.0 | 0.00 | 0.00 | 0.00 | 73 | 1012.0 |
| 20260505180046 | 83 | 138 | 2.0 | 9.0 | 0.00 | 0.00 | 0.00 | 73 | 1011.9 |
| 20260505175534 | 83 | 148 | 4.0 | 10.0 | 0.00 | 0.00 | 0.00 | 73 | 1011.9 |
| 20260505175034 | 83 | 180 | 4.0 | 11.0 | 0.00 | 0.00 | 0.00 | 73 | 1012.0 |
| 20260505174544 | 83 | 129 | 5.0 | 11.0 | 0.00 | 0.00 | 0.00 | 72 | 1012.0 |
| 20260505174034 | 83 | 188 | 1.0 | 8.0 | 0.00 | 0.00 | 0.00 | 75 | 1012.2 |
| 20260505173534 | 83 | 84 | 5.0 | 8.0 | 0.00 | 0.00 | 0.00 | 74 | 1012.3 |
| 20260505173041 | 83 | 245 | 3.0 | 9.0 | 0.00 | 0.00 | 0.00 | 74 | 1012.3 |
| 20260505172535 | 83 | 147 | 3.0 | 9.0 | 0.00 | 0.00 | 0.00 | 75 | 1012.4 |
| 20260505172034 | 82 | 145 | 1.0 | 10.0 | 0.00 | 0.00 | 0.00 | 76 | 1012.3 |
| 20260505171608 | 82 | 186 | 4.0 | 10.0 | 0.00 | 0.00 | 0.00 | 76 | 1012.4 |
| 20260505171035 | 81 | 155 | 5.0 | 9.0 | 0.00 | 0.00 | 0.00 | 77 | 1012.5 |
| 20260505170535 | 80 | 156 | 4.0 | 12.0 | 0.00 | 0.00 | 0.00 | 77 | 1012.6 |
| 20260505170039 | 80 | 183 | 3.0 | 12.0 | 0.00 | 0.00 | 0.00 | 77 | 1012.7 |
| 20260505165534 | 80 | 159 | 5.0 | 12.0 | 0.00 | 0.00 | 0.00 | 78 | 1012.6 |
| 20260505165034 | 80 | 164 | 4.0 | 9.0 | 0.00 | 0.00 | 0.00 | 79 | 1012.7 |
| 20260505164543 | 79 | 139 | 5.0 | 9.0 | 0.00 | 0.00 | 0.00 | 80 | 1012.8 |
| 20260505164035 | 79 | 208 | 3.0 | 10.0 | 0.00 | 0.00 | 0.00 | 80 | 1012.8 |
| 20260505163535 | 78 | 138 | 4.0 | 10.0 | 0.00 | 0.00 | 0.00 | 82 | 1012.7 |
| 20260505163042 | 78 | 162 | 3.0 | 10.0 | 0.00 | 0.00 | 0.00 | 82 | 1012.7 |
| 20260505162534 | 78 | 178 | 4.0 | 10.0 | 0.00 | 0.00 | 0.00 | 82 | 1012.7 |
| 20260505162034 | 78 | 191 | 5.0 | 10.0 | 0.00 | 0.00 | 0.00 | 82 | 1012.7 |
| 20260505161540 | 77 | 0 | 4.0 | 10.0 | 0.00 | 0.00 | 0.00 | 82 | 1012.7 |
| 20260505161034 | 77 | 196 | 4.0 | 10.0 | 0.00 | 0.00 | 0.00 | 82 | 1012.7 |
| 20260505160538 | 77 | 169 | 4.0 | 9.0 | 0.00 | 0.00 | 0.00 | 83 | 1012.7 |
| 20260505153042 | 76 | 161 | 5.0 | 13.0 | 0.00 | 0.00 | 0.00 | 86 | 1012.8 |
| 20260505152533 | 75 | 145 | 3.0 | 11.0 | 0.00 | 0.00 | 0.00 | 87 | 1012.8 |
| 20260505152034 | 75 | 159 | 4.0 | 11.0 | 0.00 | 0.00 | 0.00 | 87 | 1012.9 |
| 20260505151541 | 75 | 157 | 3.0 | 9.0 | 0.00 | 0.00 | 0.00 | 87 | 1012.9 |
| 20260505151034 | 75 | 153 | 2.0 | 8.0 | 0.00 | 0.00 | 0.00 | 88 | 1012.9 |
| 20260505150534 | 74 | 169 | 2.0 | 10.0 | 0.00 | 0.00 | 0.00 | 88 | 1012.9 |
| 20260505140534 | 72 | 211 | 1.0 | 9.0 | 0.00 | 0.00 | 0.00 | 91 | 1012.5 |
| 20260505125034 | 71 | 144 | 7.0 | 14.0 | 0.00 | 0.00 | 0.00 | 92 | 1012.7 |
| 20260505124555 | 71 | 187 | 6.0 | 14.0 | 0.00 | 0.00 | 0.00 | 91 | 1012.7 |
| 20260505124035 | 71 | 144 | 6.0 | 14.0 | 0.00 | 0.00 | 0.00 | 92 | 1012.7 |
| 20260505123534 | 71 | 178 | 4.0 | 14.0 | 0.00 | 0.00 | 0.00 | 92 | 1012.6 |
| 20260505123058 | 71 | 155 | 4.0 | 12.0 | 0.00 | 0.00 | 0.00 | 92 | 1012.4 |
| 20260505122534 | 71 | 164 | 5.0 | 12.0 | 0.00 | 0.00 | 0.00 | 92 | 1012.3 |
| 20260505122035 | 71 | 168 | 4.0 | 10.0 | 0.00 | 0.00 | 0.00 | 92 | 1012.1 |
| 20260505121617 | 71 | 155 | 4.0 | 12.0 | 0.00 | 0.00 | 0.00 | 91 | 1011.9 |
| 20260505121034 | 71 | 167 | 5.0 | 12.0 | 0.00 | 0.00 | 0.00 | 91 | 1012.0 |
| 20260505120535 | 71 | 155 | 4.0 | 11.0 | 0.00 | 0.00 | 0.00 | 92 | 1011.8 |
| 20260505120051 | 71 | 158 | 4.0 | 12.0 | 0.00 | 0.00 | 0.00 | 92 | 1011.7 |
| 20260505115535 | 71 | 192 | 3.0 | 12.0 | 0.00 | 0.00 | 0.00 | 92 | 1011.7 |
| 20260505115037 | 71 | 196 | 4.0 | 11.0 | 0.00 | 0.00 | 0.00 | 92 | 1011.7 |
| 20260505114551 | 71 | 178 | 5.0 | 14.0 | 0.00 | 0.00 | 0.00 | 92 | 1011.5 |
| 20260505114034 | 71 | 209 | 4.0 | 14.0 | 0.00 | 0.00 | 0.00 | 92 | 1011.5 |
| 20260505113535 | 71 | 127 | 3.0 | 11.0 | 0.00 | 0.00 | 0.00 | 92 | 1011.6 |
| 20260505113048 | 71 | 172 | 4.0 | 13.0 | 0.00 | 0.00 | 0.00 | 92 | 1011.7 |
| 20260505112535 | 71 | 163 | 4.0 | 13.0 | 0.00 | 0.00 | 0.00 | 92 | 1011.7 |
| 20260505112035 | 71 | 180 | 3.0 | 12.0 | 0.00 | 0.00 | 0.00 | 92 | 1011.6 |
| 20260505111548 | 71 | 0 | 2.0 | 12.0 | 0.00 | 0.00 | 0.00 | 92 | 1011.6 |
| 20260505111038 | 71 | 143 | 3.0 | 11.0 | 0.00 | 0.00 | 0.00 | 92 | 1011.5 |
| 20260505110537 | 71 | 175 | 4.0 | 11.0 | 0.00 | 0.00 | 0.00 | 92 | 1011.3 |
| 20260505102034 | 70 | 171 | 6.0 | 11.0 | 0.00 | 0.00 | 0.00 | 92 | 1011.6 |
| 20260505101550 | 70 | 148 | 1.0 | 9.0 | 0.00 | 0.00 | 0.00 | 92 | 1011.6 |
| 20260505101035 | 70 | 167 | 3.0 | 9.0 | 0.00 | 0.00 | 0.00 | 92 | 1011.6 |
| 20260505100535 | 70 | 180 | 3.0 | 9.0 | 0.00 | 0.00 | 0.00 | 92 | 1011.7 |
| 20260505100123 | 70 | 188 | 3.0 | 9.0 | 0.00 | 0.00 | 0.00 | 92 | 1011.7 |
| 20260505095537 | 70 | 150 | 1.0 | 8.0 | 0.00 | 0.00 | 0.00 | 92 | 1011.7 |
| 20260505095037 | 70 | 157 | 2.0 | 8.0 | 0.00 | 0.00 | 0.00 | 92 | 1011.7 |
| 20260505094550 | 70 | 140 | 2.0 | 8.0 | 0.00 | 0.00 | 0.00 | 92 | 1011.8 |
| 20260505094034 | 70 | 151 | 3.0 | 9.0 | 0.00 | 0.00 | 0.00 | 92 | 1011.7 |
| 20260505093535 | 70 | 0 | 3.0 | 9.0 | 0.00 | 0.00 | 0.00 | 92 | 1011.5 |
| 20260505093052 | 70 | 0 | 3.0 | 12.0 | 0.00 | 0.00 | 0.00 | 92 | 1011.4 |
| 20260505092534 | 70 | 163 | 4.0 | 12.0 | 0.00 | 0.00 | 0.00 | 92 | 1011.4 |
| 20260505092035 | 70 | 140 | 2.0 | 9.0 | 0.00 | 0.00 | 0.00 | 92 | 1011.4 |
| 20260505091601 | 70 | 136 | 2.0 | 10.0 | 0.00 | 0.00 | 0.00 | 92 | 1011.5 |
| 20260505091034 | 70 | 144 | 3.0 | 10.0 | 0.00 | 0.00 | 0.00 | 92 | 1011.6 |
| 20260505090534 | 70 | 0 | 1.0 | 7.0 | 0.00 | 0.00 | 0.00 | 92 | 1011.7 |
| 20260505090056 | 70 | 146 | 0.0 | 7.0 | 0.00 | 0.00 | 0.00 | 92 | 1011.8 |
| 20260505085535 | 70 | 165 | 3.0 | 6.0 | 0.00 | 0.00 | 0.00 | 92 | 1011.7 |
| 20260505085035 | 70 | 0 | 0.0 | 4.0 | 0.00 | 0.00 | 0.00 | 92 | 1011.7 |
| 20260505084549 | 70 | 0 | 0.0 | 6.0 | 0.00 | 0.00 | 0.00 | 92 | 1011.9 |
| 20260505084037 | 70 | 0 | 0.0 | 6.0 | 0.00 | 0.00 | 0.00 | 92 | 1011.9 |
| 20260505083534 | 70 | 173 | 1.0 | 6.0 | 0.00 | 0.00 | 0.00 | 92 | 1012.1 |
| 20260505083047 | 69 | 182 | 2.0 | 6.0 | 0.00 | 0.00 | 0.00 | 92 | 1012.3 |
| 20260505082535 | 69 | 0 | 0.0 | 5.0 | 0.00 | 0.00 | 0.00 | 92 | 1012.3 |
| 20260505082035 | 69 | 0 | 1.0 | 5.0 | 0.00 | 0.00 | 0.00 | 92 | 1012.5 |
| 20260505081546 | 69 | 0 | 0.0 | 5.0 | 0.00 | 0.00 | 0.00 | 92 | 1012.5 |
| 20260505081037 | 69 | 0 | 0.0 | 5.0 | 0.00 | 0.00 | 0.00 | 92 | 1012.5 |
| 20260505080536 | 69 | 148 | 0.0 | 6.0 | 0.00 | 0.00 | 0.00 | 92 | 1012.5 |
| 20260505080049 | 69 | 0 | 2.0 | 6.0 | 0.00 | 0.00 | 0.00 | 92 | 1012.5 |
| 20260505075534 | 69 | 167 | 0.0 | 5.0 | 0.00 | 0.00 | 0.00 | 92 | 1012.7 |
| 20260505075036 | 69 | 0 | 0.0 | 6.0 | 0.00 | 0.00 | 0.00 | 92 | 1012.8 |
| 20260505074549 | 69 | 149 | 0.0 | 6.0 | 0.00 | 0.00 | 0.00 | 92 | 1012.9 |